Springfield, MO

8:34 AM CDT on May 26, 2017 (GMT -0500)
Springfield-Branson Regional

Weather History for KSGF - February, 2014

Change the Weather History Date:

Saturday, February 22, 2014

  Actual Average Record
Temperature  
Mean Temperature 51 °F 39 °F  
Max Temperature 68 °F 50 °F 76 °F (1995)
Min Temperature 33 °F 28 °F -1 °F (1978)
Degree Days  
Heating Degree Days 14 26  
Month to date heating degree days 732 632  
Since 1 July heating degree days 3761 3445  
Cooling Degree Days 0 0  
Month to date cooling degree days 0 0  
Year to date cooling degree days 0 0  
Growing Degree Days 2 (Base 50)    
Moisture  
Dew Point 24 °F    
Average Humidity 39    
Maximum Humidity 57    
Minimum Humidity 20    
Precipitation  
Precipitation 0.00 in 0.10 in 2.01 in (1975)
Month to date precipitation 0.50 1.91  
Year to date precipitation 1.79 4.38  
Snow  
Snow 0.00 in - - ()
Month to date snowfall 4.3  
Since 1 July snowfall 27.3  
Snow Depth 0.00 in    
Sea Level Pressure  
Sea Level Pressure 29.91 in    
Wind  
Wind Speed 12 mph (SSE)    
Max Wind Speed 21 mph    
Max Gust Speed 26 mph    
Visibility 10 miles    
Events      
T = Trace of Precipitation, MM = Missing Value Source: NWS Daily Summary

Daily Weather History Graph

Daily Weather History Graph

Search for Another Location

Airport or City:

Trip Planner

Search our weather history database for the weather conditions in past years. The results will help you decide how hot, cold, wet, or windy it might be!

Date:

Astronomy

Feb. 22, 2014 Rise Set
Actual Time 6:53 AM CST 6:00 PM CST
Civil Twilight 6:27 AM CST 6:27 PM CST
Nautical Twilight 5:57 AM CST 6:57 PM CST
Astronomical Twilight 5:27 AM CST 7:27 PM CST
Moon 12:46 AM CST (2/22) 11:15 AM CST (2/22)
Length of Visible Light 11h 59m
Length of Day
11h 06m
Waning Gibbous, 50% of the Moon is Illuminated
Feb 22
Waning Gibbous
Mar 1
New
Mar 8
First Quarter
Mar 16
Full
Mar 23
Last Quarter

Hourly Weather History & Observations

Time (CST) Temp. Windchill Dew Point Humidity Pressure Visibility Wind Dir Wind Speed Gust Speed Precip Events Conditions
12:52 AM 37.0 °F 29.8 °F 18.0 °F 46% 29.98 in 10.0 mi SSW 10.4 mph - N/A   Clear
1:52 AM 37.0 °F 29.8 °F 17.1 °F 44% 29.96 in 10.0 mi South 10.4 mph - N/A   Clear
2:52 AM 33.1 °F 25.5 °F 18.0 °F 54% 29.97 in 10.0 mi South 9.2 mph - N/A   Clear
3:52 AM 37.0 °F 31.0 °F 17.1 °F 44% 29.96 in 10.0 mi South 8.1 mph - N/A   Clear
4:52 AM 35.1 °F 27.9 °F 18.0 °F 50% 29.96 in 10.0 mi SSE 9.2 mph - N/A   Clear
5:52 AM 35.1 °F 27.9 °F 19.0 °F 52% 29.97 in 10.0 mi SSE 9.2 mph - N/A   Clear
6:52 AM 39.0 °F 31.4 °F 19.0 °F 45% 29.97 in 10.0 mi SSE 12.7 mph - N/A   Clear
7:52 AM 42.1 °F 35.2 °F 19.0 °F 40% 29.97 in 10.0 mi SSE 12.7 mph - N/A   Clear
8:52 AM 48.0 °F - 19.0 °F 32% 29.96 in 10.0 mi South 13.8 mph - N/A   Clear
9:52 AM 54.0 °F - 21.9 °F 29% 29.95 in 10.0 mi South 15.0 mph - N/A   Clear
10:52 AM 57.9 °F - 24.1 °F 27% 29.93 in 10.0 mi South 16.1 mph - N/A   Clear
11:52 AM 63.0 °F - 26.1 °F 25% 29.90 in 10.0 mi South 18.4 mph - N/A   Clear
12:52 PM 64.9 °F - 26.1 °F 23% 29.87 in 10.0 mi South 16.1 mph - N/A   Clear
1:52 PM 64.9 °F - 27.0 °F 24% 29.83 in 10.0 mi South 12.7 mph - N/A   Clear
2:52 PM 66.0 °F - 26.1 °F 22% 29.81 in 10.0 mi WSW 15.0 mph - N/A   Clear
3:52 PM 66.0 °F - 25.0 °F 21% 29.80 in 10.0 mi SW 16.1 mph 24.2 mph N/A   Clear
4:52 PM 64.9 °F - 26.1 °F 23% 29.82 in 10.0 mi WSW 13.8 mph - N/A   Partly Cloudy
5:34 PM 57.0 °F - 28.9 °F 34% 29.84 in 10.0 mi North 15.0 mph - N/A   Scattered Clouds
5:52 PM 55.0 °F - 28.0 °F 35% 29.86 in 10.0 mi North 12.7 mph - N/A   Clear
6:52 PM 48.0 °F - 28.0 °F 46% 29.88 in 10.0 mi NNE 9.2 mph - N/A   Clear
7:52 PM 46.9 °F - 28.0 °F 48% 29.91 in 10.0 mi NNE 8.1 mph - N/A   Clear
8:52 PM 45.0 °F 40.1 °F 28.0 °F 52% 29.93 in 10.0 mi NNE 9.2 mph - N/A   Clear
9:52 PM 43.0 °F 37.2 °F 28.0 °F 56% 29.95 in 10.0 mi NNE 10.4 mph - N/A   Clear
10:52 PM 42.1 °F 37.1 °F 28.0 °F 58% 29.94 in 10.0 mi NE 8.1 mph - N/A   Clear
11:52 PM 42.1 °F 36.6 °F 28.9 °F 60% 29.93 in 10.0 mi NE 9.2 mph - N/A   Clear